| time (UTC) | temp F | wind direction | speed MPH | gust MPH | rain 1hr in | rain 24hr in | rain mn in | humidity % | barometer mb |
| 20260906104533 | 0 | 0.0 | 0.0 | 0.00 | 0.00 | 0.00 | 1013.4 | ||
| 20260906103026 | 0 | 0.0 | 0.0 | 0.00 | 0.00 | 0.00 | 1013.1 | ||
| 20260906101523 | 0 | 0.0 | 0.0 | 0.00 | 0.00 | 0.00 | 1013.0 | ||
| 20260906100024 | 0 | 0.0 | 0.0 | 0.00 | 0.00 | 0.00 | 1013.1 | ||
| 20260906094514 | 0 | 0.0 | 0.0 | 0.00 | 0.00 | 0.00 | 1012.9 | ||
| 20260906093010 | 0 | 0.0 | 0.0 | 0.00 | 0.00 | 0.00 | 1012.8 | ||
| 20260906091506 | 0 | 0.0 | 0.0 | 0.00 | 0.00 | 0.00 | 1012.6 | ||
| 20260906090004 | 70 | 160 | 3.0 | 7.0 | 0.00 | 0.00 | 0.00 | 94 | 1012.7 |
| 20260906084502 | 71 | 160 | 1.0 | 5.0 | 0.00 | 0.00 | 0.00 | 94 | 1012.6 |
| 20260906083100 | 71 | 160 | 2.0 | 6.0 | 0.00 | 0.00 | 0.00 | 94 | 1012.7 |
| 20260906081558 | 72 | 157 | 1.0 | 4.0 | 0.00 | 0.00 | 0.00 | 93 | 1012.7 |
| 20260906074555 | 73 | 156 | 1.0 | 6.0 | 0.00 | 0.00 | 0.00 | 92 | 1012.4 |
| 20260906073054 | 73 | 162 | 2.0 | 5.0 | 0.00 | 0.00 | 0.00 | 91 | 1012.5 |
| 20260906071552 | 74 | 156 | 2.0 | 5.0 | 0.00 | 0.00 | 0.00 | 90 | 1012.4 |
| 20260906070051 | 74 | 162 | 4.0 | 9.0 | 0.00 | 0.00 | 0.00 | 89 | 1012.4 |
| 20260906064550 | 74 | 158 | 1.0 | 4.0 | 0.00 | 0.00 | 0.00 | 88 | 1012.3 |
| 20260906063042 | 75 | 160 | 1.0 | 4.0 | 0.00 | 0.00 | 0.00 | 88 | 1012.5 |
| 20260906061540 | 76 | 158 | 2.0 | 5.0 | 0.00 | 0.00 | 0.00 | 88 | 1012.6 |
| 20260906060038 | 76 | 162 | 0.0 | 3.0 | 0.00 | 0.00 | 0.00 | 85 | 1012.7 |
| 20260906054552 | 77 | 162 | 3.0 | 6.0 | 0.00 | 0.00 | 0.00 | 85 | 1012.7 |
| 20260906053035 | 77 | 163 | 1.0 | 4.0 | 0.00 | 0.00 | 0.00 | 84 | 1012.7 |
| 20260906051535 | 78 | 161 | 2.0 | 5.0 | 0.00 | 0.00 | 0.00 | 83 | 1012.7 |
| 20260906050028 | 78 | 160 | 0.0 | 5.0 | 0.00 | 0.00 | 0.00 | 81 | 1012.5 |
| 20260906044527 | 79 | 158 | 3.0 | 9.0 | 0.00 | 0.00 | 0.00 | 80 | 1012.5 |
| 20260906043027 | 80 | 159 | 2.0 | 6.0 | 0.00 | 0.00 | 0.00 | 81 | 1012.3 |
| 20260906041528 | 81 | 160 | 3.0 | 7.0 | 0.00 | 0.00 | 0.00 | 80 | 1012.3 |
| 20260906040046 | 81 | 160 | 3.0 | 11.0 | 0.00 | 0.00 | 0.00 | 79 | 1012.0 |
| 20260906034525 | 82 | 160 | 5.0 | 10.0 | 0.00 | 0.00 | 0.00 | 81 | 1011.9 |
| 20260906033039 | 82 | 162 | 5.0 | 13.0 | 0.00 | 0.00 | 0.00 | 81 | 1011.7 |
| 20260906031524 | 83 | 157 | 5.0 | 14.0 | 0.00 | 0.00 | 0.00 | 79 | 1011.5 |
| 20260906030023 | 84 | 158 | 4.0 | 11.0 | 0.00 | 0.00 | 0.00 | 78 | 1011.2 |
| 20260906024522 | 84 | 158 | 2.0 | 6.0 | 0.00 | 0.00 | 0.00 | 76 | 1011.0 |
| 20260906023023 | 85 | 157 | 2.0 | 8.0 | 0.00 | 0.00 | 0.00 | 74 | 1010.9 |
| 20260906021523 | 85 | 160 | 4.0 | 9.0 | 0.00 | 0.00 | 0.00 | 74 | 1010.8 |
| 20260906020022 | 85 | 159 | 3.0 | 6.0 | 0.00 | 0.00 | 0.00 | 73 | 1010.7 |
| 20260906014526 | 85 | 159 | 5.0 | 7.0 | 0.00 | 0.00 | 0.00 | 71 | 1010.7 |
| 20260906013020 | 86 | 160 | 1.0 | 5.0 | 0.00 | 0.00 | 0.00 | 71 | 1010.5 |
| 20260906011519 | 86 | 160 | 0.0 | 0.0 | 0.00 | 0.00 | 0.00 | 70 | 1010.2 |
| 20260906010020 | 87 | 160 | 0.0 | 3.0 | 0.00 | 0.00 | 0.00 | 68 | 1010.1 |
| 20260906004519 | 88 | 160 | 0.0 | 4.0 | 0.00 | 0.00 | 0.00 | 66 | 1010.1 |
| 20260906003018 | 88 | 157 | 2.0 | 6.0 | 0.00 | 0.00 | 0.00 | 65 | 1010.0 |
| 20260906001517 | 89 | 155 | 0.0 | 4.0 | 0.00 | 0.00 | 0.00 | 63 | 1010.1 |
| 20260906000017 | 90 | 160 | 3.0 | 6.0 | 0.00 | 0.00 | 0.00 | 60 | 1010.1 |
| 20260905234518 | 91 | 155 | 2.0 | 6.0 | 0.00 | 0.00 | 0.00 | 58 | 1010.1 |
| 20260905233015 | 93 | 158 | 3.0 | 8.0 | 0.00 | 0.00 | 0.00 | 55 | 1009.9 |
| 20260905231519 | 93 | 158 | 3.0 | 8.0 | 0.00 | 0.00 | 0.00 | 53 | 1009.8 |
| 20260905230014 | 94 | 157 | 5.0 | 11.0 | 0.00 | 0.00 | 0.00 | 51 | 1009.8 |
| 20260905224527 | 95 | 155 | 10.0 | 15.0 | 0.00 | 0.00 | 0.00 | 49 | 1009.7 |
| 20260905223015 | 96 | 155 | 5.0 | 10.0 | 0.00 | 0.00 | 0.00 | 48 | 1009.7 |
| 20260905221511 | 97 | 158 | 9.0 | 13.0 | 0.00 | 0.00 | 0.00 | 47 | 1009.7 |
| 20260905220011 | 97 | 155 | 6.0 | 12.0 | 0.00 | 0.00 | 0.00 | 46 | 1009.6 |
| 20260905214511 | 97 | 155 | 6.0 | 10.0 | 0.00 | 0.00 | 0.00 | 44 | 1009.6 |
| 20260905213009 | 96 | 151 | 7.0 | 14.0 | 0.00 | 0.00 | 0.00 | 43 | 1009.7 |
| 20260905211523 | 96 | 150 | 7.0 | 11.0 | 0.00 | 0.00 | 0.00 | 40 | 1009.8 |
| 20260905210007 | 94 | 153 | 9.0 | 14.0 | 0.00 | 0.00 | 0.00 | 42 | 1010.0 |
| 20260905204504 | 93 | 153 | 9.0 | 16.0 | 0.00 | 0.00 | 0.00 | 47 | 1010.3 |
| 20260905203002 | 90 | 155 | 9.0 | 15.0 | 0.00 | 0.00 | 0.00 | 55 | 1010.6 |
| 20260905201601 | 90 | 156 | 12.0 | 18.0 | 0.00 | 0.00 | 0.00 | 58 | 1010.5 |
| 20260905200104 | 95 | 158 | 20.0 | 26.0 | 0.00 | 0.00 | 0.00 | 48 | 1010.5 |
| 20260905194559 | 97 | 155 | 8.0 | 15.0 | 0.00 | 0.00 | 0.00 | 45 | 1010.4 |
| 20260905193058 | 98 | 153 | 9.0 | 14.0 | 0.00 | 0.00 | 0.00 | 44 | 1010.5 |
| 20260905191605 | 99 | 152 | 5.0 | 12.0 | 0.00 | 0.00 | 0.00 | 42 | 1010.5 |
| 20260905190054 | 100 | 147 | 5.0 | 12.0 | 0.00 | 0.00 | 0.00 | 43 | 1010.5 |
| 20260905184557 | 99 | 152 | 6.0 | 15.0 | 0.00 | 0.00 | 0.00 | 42 | 1010.9 |
| 20260905183048 | 98 | 155 | 4.0 | 11.0 | 0.00 | 0.00 | 0.00 | 43 | 1011.0 |
| 20260905181547 | 98 | 151 | 7.0 | 14.0 | 0.00 | 0.00 | 0.00 | 44 | 1011.2 |
| 20260905180058 | 97 | 155 | 7.0 | 12.0 | 0.00 | 0.00 | 0.00 | 44 | 1011.2 |
| 20260905174542 | 98 | 153 | 6.0 | 10.0 | 0.00 | 0.00 | 0.00 | 42 | 1011.4 |
| 20260905173100 | 99 | 150 | 5.0 | 11.0 | 0.00 | 0.00 | 0.00 | 42 | 1011.4 |
| 20260905171636 | 98 | 151 | 3.0 | 11.0 | 0.00 | 0.00 | 0.00 | 42 | 1011.7 |
| 20260905170035 | 98 | 147 | 4.0 | 9.0 | 0.00 | 0.00 | 0.00 | 44 | 1011.9 |
| 20260905164534 | 98 | 150 | 6.0 | 12.0 | 0.00 | 0.00 | 0.00 | 44 | 1012.1 |
| 20260905163030 | 97 | 155 | 2.0 | 9.0 | 0.00 | 0.00 | 0.00 | 46 | 1012.2 |
| 20260905161627 | 97 | 153 | 3.0 | 10.0 | 0.00 | 0.00 | 0.00 | 46 | 1012.2 |
| 20260905160026 | 96 | 149 | 3.0 | 8.0 | 0.00 | 0.00 | 0.00 | 47 | 1012.4 |
| 20260905154523 | 96 | 154 | 1.0 | 6.0 | 0.00 | 0.00 | 0.00 | 48 | 1012.5 |
| 20260905153021 | 95 | 154 | 1.0 | 7.0 | 0.00 | 0.00 | 0.00 | 49 | 1012.7 |
| 20260905151520 | 94 | 148 | 3.0 | 7.0 | 0.00 | 0.00 | 0.00 | 52 | 1012.5 |
| 20260905150012 | 93 | 151 | 2.0 | 8.0 | 0.00 | 0.00 | 0.00 | 53 | 1012.5 |
| 20260905144521 | 92 | 153 | 3.0 | 7.0 | 0.00 | 0.00 | 0.00 | 55 | 1012.5 |
| 20260905143007 | 91 | 156 | 3.0 | 5.0 | 0.00 | 0.00 | 0.00 | 59 | 1012.6 |
| 20260905141505 | 91 | 155 | 1.0 | 4.0 | 0.00 | 0.00 | 0.00 | 60 | 1012.7 |
| 20260905140100 | 89 | 156 | 0.0 | 5.0 | 0.00 | 0.00 | 0.00 | 63 | 1012.9 |
| 20260905134557 | 87 | 152 | 0.0 | 1.0 | 0.00 | 0.00 | 0.00 | 66 | 1012.9 |
| 20260905133058 | 86 | 155 | 0.0 | 1.0 | 0.00 | 0.00 | 0.00 | 69 | 1012.9 |
| 20260905131550 | 85 | 153 | 0.0 | 1.0 | 0.00 | 0.00 | 0.00 | 73 | 1013.0 |
| 20260905130045 | 82 | 159 | 0.0 | 0.0 | 0.00 | 0.00 | 0.00 | 79 | 1013.0 |
| 20260905124542 | 80 | 158 | 0.0 | 0.0 | 0.00 | 0.00 | 0.00 | 84 | 1013.0 |
| 20260905123048 | 79 | 159 | 0.0 | 1.0 | 0.00 | 0.00 | 0.00 | 83 | 1012.9 |
| 20260905121544 | 78 | 158 | 1.0 | 2.0 | 0.00 | 0.00 | 0.00 | 84 | 1012.9 |
| 20260905120034 | 0 | 0.0 | 0.0 | 0.00 | 0.00 | 0.00 | 1012.7 | ||
| 20260905114531 | 0 | 0.0 | 0.0 | 0.00 | 0.00 | 0.00 | 1012.6 | ||
| 20260905113026 | 0 | 0.0 | 0.0 | 0.00 | 0.00 | 0.00 | 1012.4 | ||
| 20260905111521 | 0 | 0.0 | 0.0 | 0.00 | 0.00 | 0.00 | 1012.5 | ||
| 20260905110018 | 0 | 0.0 | 0.0 | 0.00 | 0.00 | 0.00 | 1012.3 |